Flugplatz Meschede-Schüren (EDKM)

Hier findest Du alle Informationen zum Flugplatz Meschede-Schüren (EDKM).

Informationen für Piloten zum Flugplatz Meschede-Schüren

Hier findest Du alle relevanten Informationen, die Du als Pilot benötigst, um Meschede-Schüren anzufliegen.

Flugplatz: Meschede-Schüren ICAO-Code: EDKM
Frequenz Turm: 126.015 Mhz GAFOR Gebiet: 36
Frequenz Ground: 126.015 Mhz Mogas: nein
Platzrunde: N 2300 ft Landegebühr: -
Platzhöhe: - Sunrise: 06:10 Uhr UTC
Pisten: 04/22 - 700 m x 30 m, ASPH Sunset: 16:11 Uhr UTC

Mitglieder, die in Meschede-Schüren fliegen

Flugwetter am Flugplatz Meschede-Schüren

Die METAR Information stammen aus EDLP (43.45 km entfernt).

METAR Code:
2020/10/23 17:50
EDLP 231750Z 19005KT 9999 FEW025 12/11 Q1011

Flugschulen am Flugplatz Meschede-Schüren

Am Flugplatz Meschede-Schüren gibt es eine Flugschule.

Benachbarte Flugplätze und Flugschulen

Es gibt 24 weitere Flugplätze in einem Umkreis von 50 km um den Flugplatz Meschede-Schüren.

Jetzt anmelden

Passwort vergessen

Umfrage Archiv

Wären Rettungsgeräte keine Pflicht mehr, würdet Ihr Euer UL trotzdem mit einem ausstatten?

Ja
86 %
Nein
14 %
Stimmen: 358 | Diskussion
Anzeige: Roland Aircraft
Statistik Alle Mitglieder

Aktuell sind 46 Besucher online, davon 6 Mitglieder und 40 Gäste.


Mitglieder online:
Aero-Flo  hennes  edhs  al.v  Moskito_Andi  mabe 

Anzeige: VFR Sprechfunk Simulator


Anzeige: Pocket FMS